Find Starlink 11481

NORAD ID: 62230 Int'l Des: 2024-231 Owner: SPXS Country: US Constellation: starlink operational
LEOCIRCULAR

当前视图

正在加载3D地球...

About Starlink 11481

Starlink 11481 (NORAD 62230) is a starlink constellation satellite (v2 mini d2c) launched Dec 5, 2024 by SPXS of US. It operates in LEO, CIRCULAR orbit with a mass of 960.00 kg.

关于 Starlink 11481

正在加载描述...

即将过境

Passes for default location (London). Set your location on the main map for personalized predictions.

高度历史

Loading altitude history...

两行轨道根数

1 62230U 24231N 26171.43239253 .00160705 00000-0 13014-2 0 9993
2 62230 53.1570 315.1271 0000481 111.7639 248.3430 15.69791369 89543
Epoch: Jun 20, 2026 • Age: 29 hours

当前状态

高度 361.3 km
速度 7.69 km/s
星下点 -9.75°S, 161.67°E
发射日期 Dec 5, 2024
运行时间 1.5 years
类型 internet

技术详情

分类 Payload
质量 960.00 kg
干质量 910.00 kg
总质量 960.00 kg
长度 0.30 m
直径 4.10 m
跨度 29.00 m
形状 Box + pan
制造商 SPXS
平台类型 Starlink V2MD
阶段状态 In Orbit
所有者/国家 SPXS/US

Most Searched